{"data":{"norad_id":65382,"epoch":"2026-09-20T14:06:43.465248Z","epoch_age_seconds":107255,"freshness":"FRESH","line1":"1 65382U 25191D   26263.58800307  .00011451  00000+0  35637-3 0  9990","line2":"2 65382  97.2840 129.6375 0002386  71.8270 288.3233 15.33453536 59655","mean_motion":15.33453536,"eccentricity":0.0002386,"inclination_deg":97.284,"raan_deg":129.6375,"arg_perigee_deg":71.827,"mean_anomaly_deg":288.3233,"bstar":0.00035637,"rev_number":5965,"period_min":93.905681926055,"perigee_km":463.88488143563,"apogee_km":467.15067349543,"semimajor_km":6843.6547774655,"source":"CELESTRAK","updated_at":"2026-09-21T09:00:35.597506Z"}}